• In Belarus
  • List of Countries
  • For 7 days
  • Water Temperature
  • Satellite Maps
  • Weather Map
  • Weather Widgets
  • user-avatar
    Login

    Hourly Weather Bolehov

    Today, 19 June, Tuesday

    Time Temperature Precipitation Wind Pressure Humidity
    00:00 +18°C° 0.1 mm 1 mps 729 mmHg 93%
    01:00 +18°C° 0.1 mm 1 mps 729 mmHg 93%
    02:00 +16°C° 0 mm 1 mps 729 mmHg 93%
    03:00 +16°C° 0 mm 1 mps 729 mmHg 94%
    04:00 +16°C° 0 mm 1 mps 729 mmHg 94%
    05:00 +16°C° 0 mm 1 mps 729 mmHg 94%
    06:00 +19°C° 0 mm 1 mps 730 mmHg 91%
    07:00 +20°C° 0 mm 1 mps 730 mmHg 87%
    08:00 +22°C° 0 mm 1 mps 730 mmHg 84%
    09:00 +24°C° 0.2 mm 1 mps 731 mmHg 79%
    10:00 +25°C° 0.2 mm 1 mps 731 mmHg 74%
    11:00 +26°C° 0.2 mm 1 mps 731 mmHg 69%
    12:00 +27°C° 0.3 mm 1 mps 731 mmHg 68%
    13:00 +27°C° 0.3 mm 2 mps 731 mmHg 67%
    14:00 +28°C° 0.3 mm 2 mps 731 mmHg 66%
    15:00 +27°C° 0.6 mm 2 mps 731 mmHg 69%
    16:00 +27°C° 0.6 mm 1 mps 731 mmHg 73%
    17:00 +26°C° 0.6 mm 1 mps 731 mmHg 76%
    18:00 +25°C° 0.4 mm 1 mps 731 mmHg 81%
    19:00 +24°C° 0.4 mm 1 mps 731 mmHg 86%
    20:00 +22°C° 0.4 mm 1 mps 731 mmHg 91%
    21:00 +21°C° 0 mm 1 mps 731 mmHg 91%
    22:00 +20°C° 0 mm 1 mps 731 mmHg 92%
    23:00 +20°C° 0 mm 1 mps 732 mmHg 93%

    Tomorrow, 20 June, Wednesday

    Time Temperature Precipitation Wind Pressure Humidity
    00:00 +19°C° 0 mm 1 mps 732 mmHg 94%
    01:00 +19°C° 0 mm 1 mps 732 mmHg 94%
    02:00 +18°C° 0 mm 1 mps 732 mmHg 94%
    03:00 +18°C° 0 mm 1 mps 732 mmHg 94%
    04:00 +18°C° 0 mm 1 mps 732 mmHg 94%
    05:00 +18°C° 0 mm 1 mps 732 mmHg 95%
    06:00 +19°C° 0 mm 1 mps 733 mmHg 91%
    07:00 +21°C° 0 mm 1 mps 733 mmHg 87%
    08:00 +22°C° 0 mm 1 mps 733 mmHg 83%
    09:00 +23°C° 0 mm 1 mps 733 mmHg 78%
    10:00 +25°C° 0 mm 1 mps 733 mmHg 72%
    11:00 +26°C° 0 mm 2 mps 733 mmHg 66%
    12:00 +26°C° 0.1 mm 2 mps 733 mmHg 65%
    13:00 +27°C° 0.1 mm 2 mps 733 mmHg 64%
    14:00 +27°C° 0.1 mm 2 mps 732 mmHg 63%
    15:00 +27°C° 0.2 mm 2 mps 732 mmHg 66%
    16:00 +27°C° 0.2 mm 2 mps 732 mmHg 68%
    17:00 +26°C° 0.2 mm 2 mps 732 mmHg 70%
    18:00 +25°C° 0.1 mm 1 mps 732 mmHg 76%
    19:00 +24°C° 0.1 mm 1 mps 732 mmHg 81%
    20:00 +22°C° 0.1 mm 1 mps 732 mmHg 86%
    21:00 +22°C° 0 mm 1 mps 732 mmHg 88%
    22:00 +21°C° 0 mm 1 mps 732 mmHg 90%
    23:00 +18°C° 0 mm 0 mps 732 mmHg 92%

    Day after tomorrow, 21 June, Thursday

    Time Temperature Precipitation Wind Pressure Humidity
    00:00 +17°C° 0 mm 0 mps 732 mmHg 93%
    01:00 +17°C° 0 mm 0 mps 731 mmHg 93%
    02:00 +17°C° 0 mm 0 mps 731 mmHg 94%
    03:00 +17°C° 0 mm 0 mps 731 mmHg 94%
    04:00 +17°C° 0 mm 0 mps 731 mmHg 94%
    05:00 +17°C° 0 mm 0 mps 731 mmHg 94%
    06:00 +20°C° 0 mm 1 mps 730 mmHg 90%
    07:00 +22°C° 0 mm 1 mps 730 mmHg 86%
    08:00 +24°C° 0 mm 1 mps 730 mmHg 81%
    09:00 +25°C° 0 mm 1 mps 730 mmHg 75%
    10:00 +27°C° 0 mm 2 mps 730 mmHg 69%
    11:00 +28°C° 0 mm 2 mps 729 mmHg 63%
    12:00 +29°C° 0.1 mm 2 mps 729 mmHg 61%
    13:00 +29°C° 0.1 mm 2 mps 728 mmHg 60%
    14:00 +30°C° 0.1 mm 2 mps 727 mmHg 58%
    15:00 +29°C° 0.6 mm 2 mps 727 mmHg 61%
    16:00 +29°C° 0.6 mm 2 mps 726 mmHg 64%
    17:00 +28°C° 0.6 mm 3 mps 726 mmHg 67%
    18:00 +27°C° 0.2 mm 2 mps 726 mmHg 73%
    19:00 +25°C° 0.2 mm 2 mps 725 mmHg 79%
    20:00 +24°C° 0.2 mm 2 mps 725 mmHg 85%
    21:00 +23°C° 0.1 mm 2 mps 725 mmHg 87%
    22:00 +21°C° 0.1 mm 2 mps 725 mmHg 88%
    23:00 +21°C° 0.1 mm 2 mps 724 mmHg 90%

    22 June, Friday

    Time Temperature Precipitation Wind Pressure Humidity
    00:00 +21°C° 0.1 mm 2 mps 724 mmHg 90%
    01:00 +20°C° 0.1 mm 3 mps 724 mmHg 90%
    02:00 +20°C° 0.1 mm 3 mps 724 mmHg 90%
    03:00 +20°C° 0.5 mm 3 mps 724 mmHg 92%
    04:00 +19°C° 0.5 mm 3 mps 724 mmHg 94%
    05:00 +19°C° 0.5 mm 3 mps 724 mmHg 95%
    06:00 +18°C° 0.5 mm 3 mps 724 mmHg 95%
    07:00 +15°C° 0.5 mm 4 mps 724 mmHg 95%
    08:00 +14°C° 0.5 mm 4 mps 725 mmHg 94%
    09:00 +14°C° 0.6 mm 4 mps 725 mmHg 94%
    10:00 +13°C° 0.6 mm 3 mps 725 mmHg 93%
    11:00 +13°C° 0.6 mm 3 mps 725 mmHg 93%
    12:00 +12°C° 0.6 mm 3 mps 725 mmHg 93%
    13:00 +13°C° 0.6 mm 2 mps 726 mmHg 93%
    14:00 +13°C° 0.6 mm 2 mps 726 mmHg 94%
    15:00 +13°C° 0.1 mm 2 mps 726 mmHg 93%
    16:00 +13°C° 0.1 mm 2 mps 726 mmHg 92%
    17:00 +13°C° 0.1 mm 2 mps 726 mmHg 90%
    18:00 +13°C° 0.2 mm 2 mps 726 mmHg 91%
    19:00 +12°C° 0.2 mm 2 mps 726 mmHg 92%
    20:00 +12°C° 0.2 mm 2 mps 727 mmHg 92%
    21:00 +10°C° 0.1 mm 2 mps 727 mmHg 91%
    22:00 +10°C° 0.1 mm 2 mps 727 mmHg 91%
    23:00 +9°C° 0.1 mm 2 mps 727 mmHg 90%

    23 June, Saturday

    Time Temperature Precipitation Wind Pressure Humidity
    00:00 +9°C° 0 mm 2 mps 728 mmHg 89%
    01:00 +8°C° 0 mm 2 mps 728 mmHg 89%
    02:00 +8°C° 0 mm 2 mps 728 mmHg 88%
    03:00 +8°C° 0 mm 2 mps 728 mmHg 89%
    04:00 +7°C° 0 mm 2 mps 728 mmHg 90%
    05:00 +7°C° 0 mm 2 mps 728 mmHg 90%
    06:00 +9°C° 0 mm 2 mps 728 mmHg 84%
    07:00 +11°C° 0 mm 3 mps 729 mmHg 78%
    08:00 +13°C° 0 mm 3 mps 729 mmHg 72%
    09:00 +14°C° 0 mm 3 mps 729 mmHg 66%
    10:00 +16°C° 0 mm 3 mps 729 mmHg 60%
    11:00 +18°C° 0 mm 3 mps 729 mmHg 54%
    12:00 +18°C° 0.2 mm 3 mps 729 mmHg 57%
    13:00 +18°C° 0.2 mm 3 mps 728 mmHg 60%
    14:00 +18°C° 0.2 mm 3 mps 728 mmHg 63%
    15:00 +18°C° 0.5 mm 3 mps 728 mmHg 67%
    16:00 +17°C° 0.5 mm 3 mps 728 mmHg 71%
    17:00 +17°C° 0.5 mm 3 mps 728 mmHg 75%
    18:00 +16°C° 0.2 mm 2 mps 729 mmHg 79%
    19:00 +15°C° 0.2 mm 2 mps 729 mmHg 83%
    20:00 +13°C° 0.2 mm 1 mps 729 mmHg 87%
    21:00 +12°C° 0 mm 1 mps 729 mmHg 89%
    22:00 +12°C° 0 mm 1 mps 729 mmHg 90%
    23:00 +11°C° 0 mm 1 mps 730 mmHg 92%

    24 June, Sunday

    Time Temperature Precipitation Wind Pressure Humidity
    00:00 +10°C° 0 mm 1 mps 730 mmHg 92%
    01:00 +10°C° 0 mm 1 mps 730 mmHg 92%
    02:00 +10°C° 0 mm 1 mps 730 mmHg 92%
    03:00 +9°C° 0 mm 1 mps 730 mmHg 92%
    04:00 +9°C° 0 mm 1 mps 730 mmHg 92%
    05:00 +9°C° 0 mm 1 mps 730 mmHg 92%
    06:00 +11°C° 0 mm 1 mps 731 mmHg 86%
    07:00 +14°C° 0 mm 1 mps 731 mmHg 81%
    08:00 +16°C° 0 mm 1 mps 731 mmHg 75%
    09:00 +18°C° 0.1 mm 1 mps 731 mmHg 71%
    10:00 +19°C° 0.1 mm 1 mps 731 mmHg 67%
    11:00 +19°C° 0.1 mm 2 mps 731 mmHg 63%
    12:00 +20°C° 0.3 mm 1 mps 731 mmHg 63%
    13:00 +21°C° 0.3 mm 1 mps 731 mmHg 64%
    14:00 +21°C° 0.3 mm 1 mps 730 mmHg 65%
    15:00 +21°C° 0.7 mm 1 mps 730 mmHg 67%
    16:00 +21°C° 0.7 mm 1 mps 730 mmHg 69%
    17:00 +20°C° 0.7 mm 1 mps 730 mmHg 71%
    18:00 +19°C° 0.4 mm 1 mps 730 mmHg 76%
    19:00 +18°C° 0.4 mm 1 mps 730 mmHg 81%
    20:00 +15°C° 0.4 mm 1 mps 730 mmHg 86%
    21:00 +15°C° 0.1 mm 1 mps 730 mmHg 87%
    22:00 +14°C° 0.1 mm 1 mps 731 mmHg 88%
    23:00 +13°C° 0.1 mm 1 mps 731 mmHg 89%
    Show more